TimeCDT,TemperatureF,Dew PointF,Humidity,Sea Level PressureIn,VisibilityMPH,Wind Direction,Wind SpeedMPH,Gust SpeedMPH,PrecipitationIn,Events,Conditions,WindDirDegrees,DateUTC
12:14 AM,44.6,21.2,39,30.07,10.0,SSE,8.1,-,N/A,,Clear,160,2013-05-13 05:14:00
12:34 AM,46.4,21.2,37,30.06,10.0,SSE,5.8,-,N/A,,Clear,150,2013-05-13 05:34:00
12:53 AM,46.4,21.2,37,30.06,10.0,SSE,6.9,-,N/A,,Clear,160,2013-05-13 05:53:00
1:14 AM,46.4,21.2,37,30.06,10.0,SSE,6.9,-,N/A,,Clear,150,2013-05-13 06:14:00
1:34 AM,46.4,21.2,37,30.05,10.0,SSE,8.1,-,N/A,,Clear,160,2013-05-13 06:34:00
1:53 AM,46.4,21.2,37,30.05,10.0,SSE,8.1,-,N/A,,Clear,150,2013-05-13 06:53:00
2:14 AM,46.4,21.2,37,30.05,10.0,SSE,8.1,-,N/A,,Clear,150,2013-05-13 07:14:00
2:34 AM,46.4,21.2,37,30.05,10.0,SSE,6.9,-,N/A,,Clear,150,2013-05-13 07:34:00
2:53 AM,46.4,21.2,37,30.03,10.0,SSE,9.2,-,N/A,,Clear,150,2013-05-13 07:53:00
3:14 AM,46.4,21.2,37,30.03,10.0,SSE,9.2,-,N/A,,Clear,150,2013-05-13 08:14:00
3:34 AM,48.2,23.0,37,30.03,10.0,SSE,9.2,-,N/A,,Clear,160,2013-05-13 08:34:00
3:53 AM,48.2,23.0,37,30.01,10.0,SSE,10.4,-,N/A,,Clear,150,2013-05-13 08:53:00
4:14 AM,46.4,24.8,43,30.02,10.0,SSE,9.2,-,N/A,,Clear,160,2013-05-13 09:14:00
4:34 AM,48.2,23.0,37,30.02,10.0,SSE,9.2,-,N/A,,Clear,150,2013-05-13 09:34:00
4:53 AM,46.4,24.8,43,30.02,10.0,SSE,6.9,-,N/A,,Clear,160,2013-05-13 09:53:00
5:14 AM,44.6,24.8,46,30.00,10.0,SSE,8.1,-,N/A,,Clear,150,2013-05-13 10:14:00
5:34 AM,44.6,26.6,49,29.99,10.0,SSE,10.4,-,N/A,,Clear,150,2013-05-13 10:34:00
5:53 AM,44.6,26.6,49,29.99,10.0,SSE,8.1,-,N/A,,Clear,150,2013-05-13 10:53:00
6:14 AM,44.6,26.6,49,29.99,10.0,SSE,6.9,-,N/A,,Clear,150,2013-05-13 11:14:00
6:53 AM,46.4,26.6,46,29.97,10.0,SE,11.5,-,N/A,,Scattered Clouds,140,2013-05-13 11:53:00
7:14 AM,48.2,26.6,43,29.96,10.0,SSE,11.5,-,N/A,,Scattered Clouds,150,2013-05-13 12:14:00
7:34 AM,48.2,26.6,43,29.95,10.0,SSE,11.5,-,N/A,,Clear,150,2013-05-13 12:34:00
7:53 AM,50.0,26.6,40,29.95,10.0,SSE,10.4,-,N/A,,Clear,150,2013-05-13 12:53:00
8:14 AM,51.8,26.6,38,29.94,10.0,SSE,11.5,-,N/A,,Scattered Clouds,150,2013-05-13 13:14:00
8:34 AM,53.6,26.6,35,29.93,10.0,SSE,12.7,-,N/A,,Clear,150,2013-05-13 13:34:00
8:53 AM,55.4,26.6,33,29.92,10.0,SSE,13.8,18.4,N/A,,Clear,160,2013-05-13 13:53:00
9:14 AM,57.2,28.4,33,29.91,10.0,South,13.8,-,N/A,,Clear,170,2013-05-13 14:14:00
9:34 AM,60.8,32.0,34,29.90,10.0,South,15.0,-,N/A,,Clear,180,2013-05-13 14:34:00
9:53 AM,62.6,33.8,34,29.89,10.0,South,17.3,23.0,N/A,,Clear,190,2013-05-13 14:53:00
10:14 AM,64.4,35.6,34,29.87,10.0,South,15.0,21.9,N/A,,Clear,190,2013-05-13 15:14:00
10:34 AM,64.4,37.4,37,29.85,10.0,South,18.4,-,N/A,,Clear,180,2013-05-13 15:34:00
10:53 AM,66.2,39.2,37,29.85,10.0,South,19.6,25.3,N/A,,Clear,180,2013-05-13 15:53:00
11:14 AM,69.8,39.2,33,29.83,10.0,South,23.0,26.5,N/A,,Clear,180,2013-05-13 16:14:00
11:34 AM,69.8,39.2,33,29.81,10.0,South,20.7,26.5,N/A,,Clear,180,2013-05-13 16:34:00
11:53 AM,71.6,39.2,31,29.81,10.0,South,24.2,27.6,N/A,,Clear,190,2013-05-13 16:53:00
12:14 PM,71.6,39.2,31,29.79,10.0,South,21.9,25.3,N/A,,Clear,190,2013-05-13 17:14:00
12:34 PM,73.4,39.2,29,29.78,10.0,South,21.9,29.9,N/A,,Clear,190,2013-05-13 17:34:00
12:53 PM,73.4,39.2,29,29.77,10.0,South,21.9,29.9,N/A,,Clear,180,2013-05-13 17:53:00
1:14 PM,75.2,39.2,27,29.77,10.0,SSW,19.6,-,N/A,,Clear,200,2013-05-13 18:14:00
1:34 PM,75.2,39.2,27,29.76,10.0,SSW,20.7,26.5,N/A,,Clear,210,2013-05-13 18:34:00
1:53 PM,75.2,39.2,27,29.77,10.0,SW,19.6,26.5,N/A,,Clear,220,2013-05-13 18:53:00
2:13 PM,78.8,42.8,28,29.76,10.0,SSW,18.4,-,N/A,,Clear,210,2013-05-13 19:13:00
2:34 PM,78.8,42.8,28,29.75,10.0,SW,21.9,28.8,N/A,,Clear,230,2013-05-13 19:34:00
3:34 PM,82.4,42.8,25,29.72,10.0,WSW,18.4,25.3,N/A,,Clear,250,2013-05-13 20:34:00
3:53 PM,82.4,44.6,26,29.71,10.0,WSW,16.1,24.2,N/A,,Clear,250,2013-05-13 20:53:00
4:14 PM,84.2,44.6,25,29.70,10.0,WSW,15.0,24.2,N/A,,Clear,250,2013-05-13 21:14:00
4:34 PM,84.2,42.8,23,29.70,10.0,West,16.1,25.3,N/A,,Clear,270,2013-05-13 21:34:00
4:53 PM,84.2,42.8,23,29.68,10.0,WSW,16.1,21.9,N/A,,Clear,250,2013-05-13 21:53:00
5:14 PM,86.0,42.8,22,29.68,10.0,West,11.5,25.3,N/A,,Clear,260,2013-05-13 22:14:00
5:34 PM,86.0,42.8,22,29.67,10.0,West,15.0,-,N/A,,Clear,260,2013-05-13 22:34:00
5:53 PM,87.8,42.8,21,29.66,10.0,West,12.7,23.0,N/A,,Clear,260,2013-05-13 22:53:00
6:34 PM,87.8,39.2,18,29.65,10.0,West,19.6,27.6,N/A,,Clear,280,2013-05-13 23:34:00
7:14 PM,86.0,33.8,15,29.65,10.0,NW,18.4,26.5,N/A,,Clear,310,2013-05-14 00:14:00
7:34 PM,86.0,33.8,15,29.65,10.0,WNW,16.1,26.5,N/A,,Clear,300,2013-05-14 00:34:00
7:53 PM,84.2,35.6,18,29.66,10.0,WNW,13.8,20.7,N/A,,Clear,300,2013-05-14 00:53:00
8:14 PM,82.4,35.6,19,29.66,10.0,WNW,11.5,-,N/A,,Clear,300,2013-05-14 01:14:00
8:33 PM,80.6,35.6,20,29.67,10.0,WNW,10.4,-,N/A,,Clear,300,2013-05-14 01:33:00
8:54 PM,75.2,35.6,24,29.67,10.0,West,8.1,-,N/A,,Clear,280,2013-05-14 01:54:00
9:13 PM,73.4,37.4,27,29.67,10.0,West,9.2,-,N/A,,Clear,280,2013-05-14 02:13:00
9:34 PM,71.6,37.4,29,29.68,10.0,West,10.4,-,N/A,,Clear,280,2013-05-14 02:34:00
9:54 PM,69.8,37.4,31,29.69,10.0,West,10.4,-,N/A,,Clear,280,2013-05-14 02:54:00
10:13 PM,68.0,39.2,35,29.69,10.0,West,9.2,-,N/A,,Clear,280,2013-05-14 03:13:00
10:34 PM,66.2,39.2,37,29.69,10.0,West,10.4,-,N/A,,Clear,280,2013-05-14 03:34:00
10:54 PM,66.2,39.2,37,29.69,10.0,West,9.2,-,N/A,,Clear,280,2013-05-14 03:54:00
11:13 PM,64.4,39.2,40,29.69,10.0,West,9.2,-,N/A,,Clear,280,2013-05-14 04:13:00
11:34 PM,64.4,37.4,37,29.70,10.0,West,9.2,-,N/A,,Clear,270,2013-05-14 04:34:00
11:54 PM,60.8,37.4,42,29.70,10.0,West,8.1,-,N/A,,Clear,260,2013-05-14 04:54:00